Location: Canberra
(35.2820°S, 149.1287°E)
Time: 11:44:42
(UTC+11:00)

Hubble Space Telescope - Pass Details

Date: 11 May 2015
Orbit: 536 x 540 km, 28.5° (Epoch: 20 October)

Event Time Altitude Azimuth Distance (km) Brightness Sun altitude
Exits shadow 05:14:27 24° 325° (NW) 1,129 2.1 -19.2°
Maximum altitude 05:15:55 31° 3° (N) 954 2.1 -18.9°
Drops below altitude 10° 05:19:38 10° 66° (ENE) 1,803 4.6 -18.2°
Sets 05:22:05 0° 76° (ENE) 2,696 6.1 -17.7°
